Skip Page Navigation
NASA JPL Caltech
NASA Logo - Jet Propulsion Laboratory + View the NASA Portal
+ Center for Near-Earth Object Studies
JPL Home Earth Solar System Stars & Galaxies Technology
JPL Solar System Dynamics
BODIES ORBITS EPHEMERIDES TOOLS PHYSICAL DATA DISCOVERY FAQ SITE MAP
JPL Small-Body Database Browser
Search: [ help ]  
332367 (2007 EP133)
Classification: Main-belt Asteroid          SPK-ID: 2332367
Ephemeris | Orbit Diagram | Orbital Elements | Mission Design | Physical Parameters | Discovery Circumstances | Close-Approach Data ]

[ show orbit diagram ]
Orbital Elements at Epoch 2459000.5 (2020-May-31.0) TDB
Reference: JPL 14 (heliocentric ecliptic J2000)
 Element Value Uncertainty (1-sigma)   Units 
e .2267492403551481 4.3439e-08  
a 2.717918196181307 3.0027e-08 au
q 2.101632309849761 1.2118e-07 au
i 9.313838519761516 7.4237e-06 deg
node 175.4914569706989 2.7295e-05 deg
peri 94.71592657535354 3.3542e-05 deg
M 277.34836649902 2.2668e-05 deg
tp 2459376.252552262377
(2021-Jun-10.75255226)
0.0001077 TDB
period 1636.639387325017
4.48
2.7122e-05
7.426e-08
d
yr
n .2199629330615078 3.6451e-09 deg/d
Q 3.334204082512853 3.6835e-08 au
  Orbit Determination Parameters
   # obs. used (total)      202  
   data-arc span      4728 days (12.94 yr)  
   first obs. used      2007-02-23  
   last obs. used      2020-02-03  
   planetary ephem.      DE431  
   SB-pert. ephem.      SB431-N16  
   condition code      0  
   norm. resid. RMS      .6276  
   source      ORB  
   producer      Otto Matic  
   solution date      2020-Feb-25 21:07:27  

Additional Information
 Earth MOID = 1.11086 au 
 Jupiter MOID = 1.87852 au 
 T_jup = 3.304 
[ show covariance matrix ]

Ephemeris | Orbit Diagram | Orbital Elements | Mission Design | Physical Parameters | Discovery Circumstances | Close-Approach Data ]

Physical Parameter Table
Parameter Symbol Value Units Sigma Reference Notes
absolute magnitude H 16.3   n/a MPO423231  

332367 (2007 EP133)          Discovered 2007-Mar-09 by Mt. Lemmon Survey at Mount Lemmon
Reference: 20120703/Numbers.arcLast Updated: 2012-07-09

[ show close-approach data ]
Ephemeris | Orbit Diagram | Orbital Elements | Mission Design | Physical Parameters | Discovery Circumstances | Close-Approach Data ]
ABOUT SSD CREDITS/AWARDS PRIVACY/COPYRIGHT GLOSSARY LINKS
FirstGov 2020-Sep-24 09:30 UT
(server date/time)  
NASA Home Page
Site Manager:   Ryan S. Park
Webmaster  Alan B. Chamberlin